Location: Newark
(30.0000°S, 28.7500°E)
Time: 12:00:48
(UTC+00:00)

Envisat - Visible Passes

Search period start: 29 September 2020 00:00
Search period end: 09 October 2020 00:00
Orbit: 764 x 766 km, 98.1° (Epoch: 29 September)

Date Brightness Start Highest point End Pass type
(mag) Time Alt. Az. Time Alt. Az. Time Alt. Az.
29 Sep 4.1 03:02:31 10° NNE 03:07:24 49° ESE 03:12:21 10° S visible
29 Sep 5.5 16:56:56 10° SSW 17:01:06 25° WSW 17:05:13 10° NW visible
30 Sep 5.8 02:27:09 10° ENE 02:30:52 21° ESE 02:34:37 10° SSE visible
30 Sep 3.7 16:19:27 10° S 16:24:32 62° WSW 16:29:32 10° NNW visible
01 Oct 6.2 17:23:43 10° SW 17:26:16 14° WSW 17:28:47 10° W visible
02 Oct 4.7 02:51:26 10° NE 02:56:06 38° ESE 03:00:49 10° S visible
02 Oct 5.0 16:45:16 10° S 16:49:49 33° WSW 16:54:20 10° NW visible
03 Oct 6.2 02:16:36 10° ENE 02:19:38 16° ESE 02:22:41 10° SSE visible
04 Oct 3.4 03:16:21 10° NNE 03:21:25 72° ESE 03:26:33 10° S visible
04 Oct 6.1 17:11:37 10° SSW 17:15:01 18° WSW 17:18:24 10° WNW visible
05 Oct 5.2 02:40:28 10° NE 02:44:49 29° ESE 02:49:12 10° SSE visible
05 Oct 4.5 16:33:42 10° S 16:38:32 43° WSW 16:43:18 10° NW visible
06 Oct 6.4 02:06:26 10° E 02:08:24 12° ESE 02:10:23 10° SE visible
07 Oct 4.0 03:05:08 10° NNE 03:10:05 54° ESE 03:15:06 10° S visible
07 Oct 5.7 16:59:47 10° SSW 17:03:46 23° WSW 17:07:44 10° WNW visible
08 Oct 5.7 02:29:38 10° ENE 02:33:33 23° ESE 02:37:29 10° SSE visible
